Location: Bauen
(46.9356°N, 8.5784°E)
Time: 08:28:39
(UTC+00:00)

IDEFIX/ARIANE 42P - Pass Details

Date: 18 February 2020
Orbit: 784 x 803 km, 98.3° (Epoch: 27 March)

Event Time Altitude Azimuth Distance (km) Brightness Sun altitude
Rises 03:17:11 0° 12° (NNE) 3,318 6.2 -32.6°
Reaches altitude 10° 03:19:32 10° 10° (N) 2,381 5.3 -32.3°
Enters shadow 03:21:52 27° 6° (N) 1,494 4.1 -31.9°
